Das Wetter in  D-61279 Heinzenberg / Taunus





Wetter Minimum- & Maximum-Werte im Juli 2011

Standort: Heinzenberg / Taunus - Höhe 297 m         8° 24' 1" Ost 50° 21' 51" Nord
(   3-stündige Aktualisierung    letzte Aktualisierung um 20:46 am 31.07.2011  )


Messgrösse

Minimum

Maximum

Durchschnitt

Temperatur West /
Luftfeuchte West
Anklicken für Monats-Diagramm

7,5 °C

06:09
02.07.2011

31 %

13:28
12.07.2011

29,7 °C

14:13
12.07.2011

99 %

07:34
13.07.2011

Temp

15,8 °C

Feuchte

77 %

Temperatur Ost /
Luftfeuchte Ost
Anklicken für Monats-Diagramm

8,3 °C

06:52
16.07.2011

--

--
--

29,5 °C

14:28
12.07.2011

--

--
--

16,0 °C

--

Luftdruck Anklicken für Monats-Diagramm

998,5 hPa

05:08
17.07.2011

1024,1 hPa

10:43
01.07.2011

1013,0 hPa

Taupunkt

4,5 °C

20:01
15.07.2011

17,4 °C

13:13
28.07.2011

11,3 °C

Windchill
( gefühlte Temperatur )

1,0 °C

07:53
23.07.2011

28,8 °C

14:08
12.07.2011

13,9 °C

Windgeschwindigkeit /
Windrichtung
Anklicken für Monats-Diagramm

---

50,2 km/h / W

12:53
06.07.2011

9,3 km/h
W-SW

Helligkeit /
Sonnenschein
Anklicken für Monats-Diagramm
Anklicken für Monats-Diagramm

Sonnenschein:

128:53 Stunden

Max: 9:20 Std am
11.07.2011

115 klux

12:53
23.07.2011

28 klux

Solarstrahlung Anklicken für Monats-Diagramm

---

787 W/m²

12:53
23.07.2011

206 W/m²

Regenmenge
    Juli 2011
Anklicken für Monats-Diagramm

Insgesamt 65,8 l/m²

in 66:27 Stunden
an 23 Tagen

12,6 l/m²

10:13
17.07.2011

Gesamtmenge

65,8 l/m²

Regen-Tage
    Juli 2011
Anklicken für Monats-Diagramm

>   0 mm/Tag

>   2 mm/Tag

>   5 mm/Tag

> 10 mm/Tag

> 20 mm/Tag

23 Tage     
9 Tage     
6 Tage     
  1 Tag     
0 Tage     

Eisige Tage Juli 2011 / 2010

Tmin ≤ -10°C     

0 Tage

/

0 Tage

Eistage Juli 2011 / 2010

Tmax <     0°C     

0 Tage

/

0 Tage

Frosttage Juli 2011 / 2010

Tmin ≤     0°C     

0 Tage

/

0 Tage

Kalte Tage Juli 2011 / 2010

Tmax <   10°C     

0 Tage

/

0 Tage

Warme Tage Juli 2011 / 2010

Tmax ≥   20°C     

19 Tage

/

30 Tage

Sommertage Juli 2011 / 2010

Tmax ≥   25°C     

9 Tage

/

21 Tage

Heisse Tage Juli 2011 / 2010

Tmax ≥   30°C     

0 Tage

/

12 Tage


Monatsdiagramm Juli 2011

Die Kurven zeigen den Durchschnittswert des jeweiligen Tages an


Wetter-Monatsübersicht Juli 2011
Datum
  Temperatur
   Luftdruck
   Wind
  Regen
   Luftfeuchte
   Helligkeit

Sonnen-
schein

Ø
Temp.

Min.
Temp.

Max.
Temp.

Ø
Luftdruck

Min.
Luftdruck

Max.
Luftdruck

Ø-Geschw.
Haupt-Richtg.

Max.
Wind

Menge /
Dauer

Ø
Feuchte

Min.
Feuchte

Max.
Feuchte

Ø
Helligkeit

Max.
Helligkeit

1.
Juli
13,3 °C10,0 °C
10:43
18,2 °C
17:08
1021,9 hPa1020,1 hPa
18:33
1024,1 hPa
10:43
11,5 km/h
NW
32,4 km/h
15:53  
1,4 l/m²
3:45 Stunden
76 %48 %
16:23
96 %
06:38
38,3 klux114,0 klux
11:58
8:50 Std 
2.
Juli
12,1 °C7,5 °C
06:09
16,3 °C
14:19
1018,0 hPa1015,2 hPa
18:09
1021,1 hPa
03:09
11,0 km/h
W-NW
30,2 km/h
14:34  
---
76 %58 %
16:14
94 %
07:04
28 klux112 klux
14:09
3:15 Std 
3.
Juli
12,9 °C11,2 °C
05:45
15,6 °C
19:45
1015,3 hPa1013,6 hPa
08:15
1016,6 hPa
23:51
15,4 km/h
W-NW
32,4 km/h
10:20  
---
75 %69 %
19:00
84 %
23:56
19 klux63 klux
11:45
20 Min 
4.
Juli
15,9 °C9,9 °C
06:36
25,2 °C
18:16
1015,6 hPa1013,0 hPa
18:41
1016,8 hPa
02:06
4,3 km/h
NW
16,5 km/h
11:21  
---
78 %54 %
17:21
94 %
07:11
34,7 klux98,5 klux
13:16
7:20 Std 
5.
Juli
18,9 °C12,0 °C
03:32
28,1 °C
16:47
1013,8 hPa1009,7 hPa
18:52
1016,6 hPa
03:32
3,3 km/h
W-NW
20,0 km/h
14:07  
---
73 %42 %
16:42
93 %
05:47
40,3 klux90,7 klux
12:52
8:05 Std 
6.
Juli
19,7 °C14,4 °C
05:43
25,4 °C
12:13
1009,3 hPa1007,8 hPa
12:13
1012,0 hPa
23:59
13,0 km/h
W
50,2 km/h
12:53  
0,2 l/m²
30 Minuten
67 %43 %
14:58
92 %
08:23
39,3 klux104,0 klux
12:23
8:45 Std 
7.
Juli
18,3 °C13,1 °C
05:34
24,8 °C
15:59
1010,1 hPa1007,2 hPa
19:04
1012,3 hPa
05:39
8,0 km/h
W-SW
27,6 km/h
16:34  
---
15 Minuten
69 %37 %
14:24
91 %
05:59
27 klux109 klux
13:24
3:10 Std 
8.
Juli
17,8 °C14,0 °C
05:50
23,6 °C
18:20
1011,9 hPa1008,8 hPa
00:00
1015,3 hPa
23:50
13,4 km/h
W-SW
35,3 km/h
11:55  
0,9 l/m²
1:30 Stunden
68 %41 %
17:00
93 %
05:50
32 klux100 klux
10:55
5:40 Std 
9.
Juli
19,1 °C11,4 °C
06:01
27,2 °C
18:15
1014,6 hPa1012,8 hPa
14:35
1019,2 hPa
23:41
13,1 km/h
W-SW
46,0 km/h
14:10  
---
64 %34 %
17:40
90 %
08:25
39 klux109 klux
12:15
6:05 Std 
10.
Juli
17,6 °C12,6 °C
06:46
25,2 °C
13:11
1018,4 hPa1016,2 hPa
15:01
1019,6 hPa
06:46
3,9 km/h
NW
20,5 km/h
11:46  
2,4 l/m²
2:51 Stunden
70 %37 %
13:06
92 %
23:27
33 klux103 klux
12:56
5:49 Std 
11.
Juli
18,3 °C11,0 °C
06:27
26,6 °C
18:52
1019,1 hPa1017,0 hPa
18:52
1020,9 hPa
06:27
2,6 km/h
SO
16,6 km/h
12:37  
0,2 l/m²
5 Minuten
72 %39 %
19:07
98 %
08:07
39 klux103 klux
13:17
9:20 Std 
12.
Juli
19,3 °C11,0 °C
05:28
29,7 °C
14:13
1013,8 hPa1008,5 hPa
20:03
1019,4 hPa
00:08
9,7 km/h
SO
36,9 km/h
13:33  
9,0 l/m²
1:10 Stunden
70 %31 %
13:28
92 %
07:03
36 klux93 klux
13:58
7:40 Std 
13.
Juli
15,1 °C11,9 °C
23:50
17,6 °C
16:04
1008,9 hPa1006,9 hPa
07:04
1012,5 hPa
23:50
9,0 km/h
W-NW
33,2 km/h
21:49  
4,4 l/m²
5:10 Stunden
95 %79 %
16:09
99 %
07:34
11,1 klux54,7 klux
13:44
--- 
14.
Juli
13,6 °C10,9 °C
06:05
18,4 °C
16:55
1015,0 hPa1013,5 hPa
00:00
1017,6 hPa
23:56
24,2 km/h
W-SW
44,2 km/h
14:10  
0,5 l/m²
1:25 Stunden
77 %52 %
15:00
99 %
00:25
22,3 klux105,0 klux
15:00
1:34 Std 
15.
Juli
16,2 °C11,1 °C
02:11
23,6 °C
19:16
1017,7 hPa1016,3 hPa
19:16
1019,2 hPa
10:56
17,0 km/h
W-SW
33,6 km/h
08:41  
---
25 Minuten
62 %32 %
20:01
81 %
03:06
38 klux109 klux
11:36
7:15 Std 
16.
Juli
17,4 °C7,7 °C
05:27
25,6 °C
16:07
1010,8 hPa1002,1 hPa
23:03
1018,7 hPa
00:22
12,8 km/h
SW
41,5 km/h
12:02  
---
58 %31 %
15:57
90 %
07:22
40 klux99 klux
12:32
6:41 Std 
17.
Juli
15,7 °C13,4 °C
23:04
20,2 °C
00:03
1001,5 hPa998,5 hPa
05:08
1004,0 hPa
23:04
14,6 km/h
SW
34,4 km/h
09:58  
12,6 l/m²
10:25 Stunden
87 %53 %
00:03
96 %
10:38
17 klux63 klux
17:13
30 Min 
18.
Juli
14,3 °C10,7 °C
23:49
19,2 °C
16:54
1004,1 hPa1002,9 hPa
08:29
1006,4 hPa
23:49
15,1 km/h
W-SW
38,0 km/h
10:29  
7,4 l/m²
3:50 Stunden
85 %71 %
16:59
93 %
15:14
29,5 klux112,0 klux
12:24
5:05 Std 
19.
Juli
16,4 °C10,6 °C
00:24
24,0 °C
13:44
1004,9 hPa1002,8 hPa
13:44
1007,3 hPa
01:14
5,5 km/h
O-SO
27,7 km/h
17:44  
---
30 Minuten
72 %42 %
13:09
96 %
08:04
31 klux107 klux
11:29
3:45 Std 
20.
Juli
14,4 °C12,7 °C
06:15
15,9 °C
19:05
1007,8 hPa1005,1 hPa
04:35
1011,1 hPa
23:51
4,9 km/h
W-NW
16,7 km/h
14:10  
5,5 l/m²
9:20 Stunden
92 %80 %
00:05
96 %
10:05
11 klux28 klux
11:30
--- 
21.
Juli
15,8 °C13,1 °C
06:06
20,4 °C
18:51
1009,4 hPa1007,7 hPa
19:51
1011,2 hPa
02:26
3,5 km/h
W-NW
22,3 km/h
14:11  
0,6 l/m²
2:00 Stunden
88 %68 %
18:51
99 %
06:16
22,9 klux98,7 klux
11:51
1:30 Std 
22.
Juli
14,5 °C11,2 °C
23:43
18,7 °C
18:47
1010,6 hPa1009,3 hPa
03:12
1012,6 hPa
23:43
9,6 km/h
NW
30,4 km/h
18:17  
---
77 %54 %
18:52
97 %
05:12
28,8 klux108,0 klux
11:57
4:24 Std 
23.
Juli
12,0 °C8,4 °C
06:03
17,4 °C
13:53
1010,9 hPa1009,0 hPa
16:58
1012,8 hPa
01:58
9,2 km/h
W
29,5 km/h
07:53  
1,1 l/m²
2:05 Stunden
80 %58 %
13:58
93 %
07:28
24 klux115 klux
12:53
2:50 Std 
24.
Juli
11,4 °C9,3 °C
05:39
15,0 °C
16:04
1010,3 hPa1009,1 hPa
16:29
1011,5 hPa
23:40
15,8 km/h
W-SW
34,3 km/h
15:44  
5,6 l/m²
10:01 Stunden
91 %74 %
15:44
96 %
08:44
20 klux95 klux
13:04
25 Min 
25.
Juli
14,8 °C10,1 °C
05:45
21,1 °C
13:55
1009,9 hPa1008,4 hPa
16:00
1011,6 hPa
03:00
3,8 km/h
SO
21,1 km/h
13:20  
2,4 l/m²
3:00 Stunden
77 %44 %
13:50
99 %
07:45
33,7 klux103,0 klux
14:15
5:55 Std 
26.
Juli
15,4 °C12,4 °C
00:36
18,6 °C
17:06
1012,2 hPa1010,2 hPa
01:26
1016,3 hPa
23:51
2,5 km/h
W-NW
13,8 km/h
17:26  
0,3 l/m²
2:25 Stunden
86 %76 %
18:16
97 %
23:56
19 klux81 klux
12:06
10 Min 
27.
Juli
17,1 °C13,1 °C
06:17
25,0 °C
18:07
1016,9 hPa1015,1 hPa
18:07
1018,4 hPa
23:58
2,7 km/h
W-SW
34,6 km/h
20:57  
9,6 l/m²
2:40 Stunden
83 %43 %
18:02
99 %
05:52
27,2 klux82,9 klux
12:57
2:35 Std 
28.
Juli
17,1 °C13,8 °C
04:58
23,4 °C
17:28
1018,1 hPa1016,3 hPa
17:28
1019,4 hPa
09:13
2,2 km/h
NW
13,0 km/h
17:33  
1,4 l/m²
1:45 Stunden
86 %61 %
17:38
99 %
08:18
28,5 klux105,0 klux
13:28
3:15 Std 
29.
Juli
16,8 °C12,2 °C
23:50
22,4 °C
14:19
1018,3 hPa1016,6 hPa
18:09
1019,4 hPa
03:14
8,3 km/h
W-NW
30,2 km/h
17:59  
---
20 Minuten
81 %57 %
17:54
97 %
06:09
31 klux94 klux
14:09
4:25 Std 
30.
Juli
13,0 °C10,4 °C
02:00
15,0 °C
13:20
1017,6 hPa1016,4 hPa
09:40
1018,9 hPa
01:35
10,8 km/h
W-NW
28,1 km/h
12:40  
0,5 l/m²
1:00 Stunden
86 %73 %
12:00
93 %
02:50
10,8 klux34,4 klux
10:30
--- 
31.
Juli
13,9 °C10,6 °C
23:57
20,2 °C
17:56
1017,0 hPa1015,6 hPa
17:56
1017,8 hPa
23:57
8,7 km/h
W-NW
20,1 km/h
15:36  
---
77 %54 %
17:41
93 %
00:01
24,5 klux77,7 klux
16:41
4:15 Std 



Juli
2011

Temperatur

  

Luftdruck

  

Wind

  

Regen

  

Luftfeuchte

  

Helligkeit

Sonnen-
schein

Ø

Min

Max

Ø

Min

Max

Ø

Max

Max

Ø

Min

Max

Ø

Max

Max

15,8 °C

7,5 °C

06:09 Uhr
02.07.2011

29,7 °C

14:13 Uhr
12.07.2011

1013,0 hPa

998,5 hPa

05:08 Uhr
17.07.2011

1024,1 hPa

10:43 Uhr
01.07.2011

9,3 km/h

W-SW

50,2 km/h

12:53 Uhr
06.07.2011

12,6 l/m²

10:25 Stunden
17.07.2011

77 %

31 %

13:28 Uhr
12.07.2011

99 %

07:34 Uhr
13.07.2011

28,2 klux

115,0 klux

12:53 Uhr
23.07.2011

9:20 Std

am
11.07.2011

Gesamt

Gesamt

65,8 l/m²

23 Tage
66:27 h

128:53 Std


Wetter-Diagramme Juli 2011     Heinzenberg / Taunus   
TemperaturLuftfeuchte
SolarstrahlungLuftdruck
HelligkeitSonnenschein
RegenmengeRegendauer
Wind-GeschwindigkeitWind-Richtung